Flag for U.S.A. Weather past 2 weeks in Pensacola, Florida, U.S.A.

Now
66 °F

Sunny.


Feels Like: 66 °F
Forecast: 54 / 77 °F
Wind: 8 mph from Northeast

Location: Pensacola Regional Airport

Current Time: Oct 22, 2014 at 10:00:08 AM

Latest Report: Oct 22, 2014 at 8:53 AM


Visibility: 10 mi

Pressure: 30.09 "Hg

Humidity: 63%

Dew point: 53 °F

Location of PensacolaLocation

Historic Weather in Pensacola — Graph

°F

Pensacola temperature yesterday

Maximum temperature yesterday: 81 °F (at 3:53 PM)
Minimum temperature yesterday: 55 °F (at 6:53 AM)
Average temperature yesterday: 67 °F

Past Weeks' High & Low Weather Summary

 TemperatureHumidityPressure
High85 °F (Oct 8, 12:53 PM)100% (Oct 8, 1:53 AM)30.15 "Hg (Oct 8, 1:53 AM)
Low53 °F (Oct 20, 2:53 AM)27% (Oct 15, 12:53 PM)29.76 "Hg (Oct 14, 4:53 AM)
Average71 °F73%30.01 "Hg
* Reported Oct 7 8:53 AM — Oct 22 8:53 AM, Pensacola, Weather by CustomWeather, © 2014

Note: Actual official high and low records may vary slightly from our data, if they occured in-between our weather recording intervals... More about our weather records

Advertising

Pensacola weather history for previous 24 hours

 ConditionsComfort  
Time TempWeatherWind HumidityBarometerVisibility
8:53 AM
Oct 22
66 °FSunny.8 mph63%30.09 "Hg10 mi
7:53 AM64 °FSunny.6 mph65%30.07 "Hg10 mi
6:53 AM60 °FClear.7 mph75%30.04 "Hg10 mi
5:53 AM59 °FClear.5 mph81%30.03 "Hg10 mi
4:53 AM60 °FClear.6 mph80%30.02 "Hg10 mi
3:53 AM62 °FClear.7 mph73%30.01 "Hg10 mi
2:53 AM60 °FClear.5 mph78%30.01 "Hg10 mi
1:53 AM63 °FClear.6 mph73%30.00 "Hg10 mi
12:53 AM61 °FClear.6 mph78%30.01 "Hg10 mi
11:53 PM
Oct 21
61 °FClear.3 mph81%30.01 "Hg10 mi
10:53 PM63 °FClear.5 mph73%30.02 "Hg10 mi
9:53 PM66 °FClear.5 mph65%30.02 "Hg10 mi
8:53 PM68 °FClear.7 mph61%30.01 "Hg10 mi
7:53 PM67 °FClear.3 mph63%29.99 "Hg10 mi
6:53 PM67 °FClear.3 mph63%29.96 "Hg10 mi
5:53 PM75 °FSunny.No wind47%29.96 "Hg10 mi
4:53 PM79 °FSunny.6 mph36%29.95 "Hg10 mi
3:53 PM81 °FSunny.9 mph32%29.95 "Hg10 mi
2:53 PM79 °FSunny.6 mph34%29.96 "Hg10 mi
1:53 PM79 °FSunny.7 mph36%29.97 "Hg10 mi
12:53 PM77 °FSunny.8 mph39%30.01 "Hg10 mi
11:53 AM75 °FSunny.8 mph43%30.04 "Hg10 mi
10:53 AM72 °FSunny.7 mph49%30.05 "Hg10 mi
Weather by CustomWeather, © 2014

See weather overviewHow to use our weather pages